Home   Weather   Dallas   Past weeks

Flag for USA Past Weather in Dallas, Texas, USA — Yesterday and Last 2 Weeks

Now
62 °F

Partly sunny.


Feels Like: 62 °F
Forecast: 47 / 61 °F
Wind: 22 mph from Northwest

Location: Dallas Love Field

Current Time: Jan 22, 2017 at 2:49:43 pm

Latest Report: Jan 22, 2017 at 1:53 pm


Visibility: 10 mi

Pressure: 29.66 "Hg

Humidity: 52%

Dew Point: 44 °F

Location of DallasLocation

Past Weather in Dallas — Graph

°F

Dallas Temperature Yesterday

Maximum temperature yesterday: 70 °F (at 3:53 pm)
Minimum temperature yesterday: 51 °F (at 4:53 am)
Average temperature yesterday: 60 °F

High & Low Weather Summary for the Past Weeks

 TemperatureHumidityPressure
High78 °F (Jan 10, 2:53 pm)100% (Jan 15, 1:53 am)30.75 "Hg (Jan 15, 1:53 am)
Low25 °F (Jan 8, 4:53 am)19% (Jan 8, 3:53 pm)29.38 "Hg (Jan 21, 2:53 pm)
Average54 °F73%30.04 "Hg
* Reported Jan 7 12:53 pm — Jan 22 12:53 pm, Dallas, Weather by CustomWeather, © 2017

Note: Actual official high and low records may vary slightly from our data, if they occured in-between our weather recording intervals... More about our weather records

Advertising

Dallas Weather History for the Previous 24 Hours

Scroll right to see more
 ConditionsComfort  
Time TempWeatherWind HumidityBarometerVisibility
12:53 pm
Sun, Jan 22
59 °FMostly cloudy.22 mph58%29.65 "Hg10 mi
11:53 am58 °FMostly cloudy.22 mph62%29.64 "Hg10 mi
11:16 am58 °FPartly sunny.21 mph62%29.63 "Hg10 mi
10:53 am56 °FPartly sunny.20 mph67%29.62 "Hg10 mi
9:53 am52 °FPartly sunny.21 mph72%29.58 "Hg10 mi
9:06 am52 °FPartly sunny.16 mph64%29.54 "Hg10 mi
8:53 am52 °FPassing clouds.18 mph61%29.52 "Hg10 mi
7:53 am52 °FPassing clouds.16 mph59%29.46 "Hg10 mi
6:53 am53 °FPassing clouds.12 mph48%29.42 "Hg10 mi
5:53 am54 °FPassing clouds.9 mph47%29.39 "Hg10 mi
4:53 am54 °FPassing clouds.7 mph45%29.39 "Hg10 mi
3:53 am56 °FPassing clouds.7 mph44%29.39 "Hg10 mi
2:53 am58 °FPassing clouds.10 mph43%29.39 "Hg10 mi
1:53 am58 °FPassing clouds.8 mph51%29.39 "Hg10 mi
12:53 am58 °FPassing clouds.8 mph54%29.38 "Hg10 mi
11:53 pm
Sat, Jan 21
59 °FPassing clouds.9 mph58%29.40 "Hg10 mi
10:53 pm58 °FPassing clouds.6 mph62%29.42 "Hg10 mi
9:53 pm62 °FMostly cloudy.7 mph50%29.44 "Hg10 mi
8:53 pm59 °FOvercast.8 mph81%29.44 "Hg10 mi
7:53 pm57 °FMostly cloudy.6 mph87%29.44 "Hg10 mi
6:53 pm56 °FPassing clouds.9 mph87%29.43 "Hg10 mi
5:53 pm59 °FThunderstorms. Partly cloudy.7 mph78%29.43 "Hg10 mi
5:40 pm59 °FThunderstorms. Partly sunny.12 mph75%29.42 "Hg6 mi
5:20 pm69 °FThunderstorms. Broken clouds.10 mph61%29.42 "Hg10 mi
4:53 pm69 °FBroken clouds.7 mph59%29.39 "Hg10 mi
3:53 pm70 °FPartly sunny.10 mph57%29.38 "Hg10 mi
2:53 pm69 °FBroken clouds.12 mph68%29.38 "Hg10 mi
Weather by CustomWeather, © 2017

See weather overviewHow to use our weather pages